Home > Weather > Newark > Past weeks

Flag for USA Past Weather in Newark, New Jersey, USA — Yesterday and Last 2 Weeks

Now
85 °F

Partly sunny.


Feels Like: 84 °F
Forecast: 72 / 88 °F
Wind: 10 mph from Southeast

Location: Newark International Airport

Current Time: Aug 27, 2016 at 4:44:24 PM

Latest Report: Aug 27, 2016 at 3:51 PM


Visibility: 10 mi

Pressure: 30.17 "Hg

Humidity: 36%

Dew Point: 55 °F

Location of NewarkLocation

Past Weather in Newark — Graph

°F

Newark Temperature Yesterday

Maximum temperature yesterday: 94 °F (at 3:51 PM)
Minimum temperature yesterday: 75 °F (at 4:51 AM)
Average temperature yesterday: 84 °F

High & Low Weather Summary for the Past Weeks

 TemperatureHumidityPressure
High96 °F (Aug 12, 3:51 PM)91% (Aug 17, 1:51 AM)30.32 "Hg (Aug 17, 1:51 AM)
Low61 °F (Aug 23, 6:51 AM)30% (Aug 23, 3:51 PM)29.76 "Hg (Aug 21, 4:51 PM)
Average81 °F62%30.02 "Hg
* Reported Aug 12 2:51 PM — Aug 27 2:51 PM, Newark, Weather by CustomWeather, © 2016

Note: Actual official high and low records may vary slightly from our data, if they occured in-between our weather recording intervals... More about our weather records

Advertising

Newark Weather History for the Previous 24 Hours

Scroll right to see more
 ConditionsComfort  
Time TempWeatherWind HumidityBarometerVisibility
2:51 PM
Sat, Aug 27
85 °FPartly sunny.10 mph37%30.17 "Hg10 mi
1:51 PM87 °FPartly sunny.12 mph36%30.17 "Hg10 mi
12:51 PM88 °FPartly sunny.3 mph35%30.17 "Hg10 mi
11:51 AM86 °FPartly sunny.7 mph39%30.18 "Hg10 mi
10:51 AM85 °FScattered clouds.5 mph43%30.18 "Hg10 mi
9:51 AM82 °FPassing clouds.9 mph51%30.19 "Hg10 mi
8:51 AM78 °FPassing clouds.12 mph58%30.18 "Hg10 mi
7:51 AM76 °FPassing clouds.12 mph60%30.17 "Hg10 mi
6:51 AM71 °FPassing clouds.9 mph76%30.16 "Hg10 mi
5:51 AM71 °FPassing clouds.8 mph76%30.14 "Hg10 mi
4:51 AM73 °FClear.7 mph71%30.11 "Hg10 mi
3:51 AM73 °FClear.6 mph71%30.10 "Hg10 mi
2:51 AM73 °FPassing clouds.7 mph71%30.09 "Hg10 mi
1:51 AM75 °FPassing clouds.9 mph66%30.09 "Hg10 mi
12:51 AM76 °FPassing clouds.9 mph64%30.08 "Hg10 mi
11:51 PM
Fri, Aug 26
81 °FPassing clouds.10 mph54%30.07 "Hg10 mi
10:51 PM83 °FPassing clouds.12 mph51%30.05 "Hg10 mi
9:51 PM84 °FPassing clouds.9 mph49%30.04 "Hg10 mi
8:51 PM85 °FPassing clouds.13 mph48%30.02 "Hg10 mi
7:51 PM87 °FScattered clouds.14 mph45%30.01 "Hg10 mi
6:51 PM89 °FScattered clouds.15 mph41%30.00 "Hg10 mi
5:51 PM92 °FScattered clouds.15 mph37%29.99 "Hg10 mi
4:51 PM92 °FScattered clouds.15 mph40%29.97 "Hg10 mi
Weather by CustomWeather, © 2016

See weather overviewHow to use our weather pages